Time,TemperatureF,DewpointF,PressureIn,WindDirection,WindDirectionDegrees,WindSpeedMPH,WindSpeedGustMPH,Humidity,HourlyPrecipIn,Conditions,Clouds,dailyrainin,SoftwareType,DateUTC
2013-05-15 00:00:00,36.3,32.2,30.18,NE,56,1.0,2.0,85,0.00,,,0.00,Weather View 32 v70,2013-05-15 04:00:00,
2013-05-15 00:01:00,35.9,31.8,30.18,NE,51,1.0,2.0,85,0.00,,,0.00,Weather View 32 v70,2013-05-15 04:01:00,
2013-05-15 00:06:00,36.1,32.0,30.18,NNE,20,0.0,2.0,85,0.00,,,0.00,Weather View 32 v70,2013-05-15 04:06:00,
2013-05-15 00:11:00,36.5,33.0,30.18,NE,56,0.0,2.0,87,0.00,,,0.00,Weather View 32 v70,2013-05-15 04:11:00,
2013-05-15 00:16:00,36.5,32.7,30.18,NE,45,0.0,2.0,86,0.00,,,0.00,Weather View 32 v70,2013-05-15 04:16:00,
2013-05-15 00:21:00,36.6,32.8,30.18,ESE,108,0.0,2.0,86,0.00,,,0.00,Weather View 32 v70,2013-05-15 04:21:00,
2013-05-15 00:26:00,36.5,32.7,30.18,East,99,0.0,2.0,86,0.00,,,0.00,Weather View 32 v70,2013-05-15 04:26:00,
2013-05-15 00:31:00,36.5,32.4,30.17,ESE,119,0.0,2.0,85,0.00,,,0.00,Weather View 32 v70,2013-05-15 04:31:00,
2013-05-15 00:36:00,36.1,31.1,30.17,WSW,252,1.0,2.0,82,0.00,,,0.00,Weather View 32 v70,2013-05-15 04:36:00,
2013-05-15 00:41:00,36.3,31.6,30.18,North,350,0.0,2.0,83,0.00,,,0.00,Weather View 32 v70,2013-05-15 04:41:00,
2013-05-15 00:46:00,35.9,31.2,30.18,WSW,250,0.0,2.0,83,0.00,,,0.00,Weather View 32 v70,2013-05-15 04:46:00,
2013-05-15 00:51:00,35.6,30.9,30.18,WNW,292,0.0,2.0,83,0.00,,,0.00,Weather View 32 v70,2013-05-15 04:51:00,
2013-05-15 00:56:00,34.8,30.2,30.18,West,280,0.0,2.0,83,0.00,,,0.00,Weather View 32 v70,2013-05-15 04:56:00,
2013-05-15 01:01:00,33.9,29.6,30.19,NW,320,0.0,1.0,84,0.00,,,0.00,Weather View 32 v70,2013-05-15 05:01:00,
2013-05-15 01:06:00,34.3,30.0,30.18,NW,322,0.0,1.0,84,0.00,,,0.00,Weather View 32 v70,2013-05-15 05:06:00,
2013-05-15 01:11:00,33.6,29.3,30.18,ENE,71,0.0,1.0,84,0.00,,,0.00,Weather View 32 v70,2013-05-15 05:11:00,
2013-05-15 01:16:00,33.6,29.3,30.19,WNW,284,1.0,1.0,84,0.00,,,0.00,Weather View 32 v70,2013-05-15 05:16:00,
2013-05-15 01:21:00,33.8,29.5,30.18,SE,130,0.0,1.0,84,0.00,,,0.00,Weather View 32 v70,2013-05-15 05:21:00,
2013-05-15 01:26:00,33.4,29.1,30.19,SE,139,0.0,1.0,84,0.00,,,0.00,Weather View 32 v70,2013-05-15 05:26:00,
2013-05-15 01:31:00,32.9,28.9,30.18,WNW,298,0.0,1.0,85,0.00,,,0.00,Weather View 32 v70,2013-05-15 05:31:00,
2013-05-15 01:36:00,32.9,29.2,30.18,West,270,0.0,1.0,86,0.00,,,0.00,Weather View 32 v70,2013-05-15 05:36:00,
2013-05-15 01:41:00,32.5,28.8,30.20,North,8,0.0,1.0,86,0.00,,,0.00,Weather View 32 v70,2013-05-15 05:41:00,
2013-05-15 01:46:00,32.9,29.2,30.18,NW,304,0.0,1.0,86,0.00,,,0.00,Weather View 32 v70,2013-05-15 05:46:00,
2013-05-15 01:51:00,32.9,29.2,30.18,North,4,0.0,1.0,86,0.00,,,0.00,Weather View 32 v70,2013-05-15 05:51:00,
2013-05-15 01:56:00,32.7,29.3,30.18,NE,45,0.0,1.0,87,0.00,,,0.00,Weather View 32 v70,2013-05-15 05:56:00,
2013-05-15 02:01:00,32.7,29.3,30.19,West,269,0.0,1.0,87,0.00,,,0.00,Weather View 32 v70,2013-05-15 06:01:00,
2013-05-15 02:06:00,32.3,28.9,30.18,ENE,64,0.0,1.0,87,0.00,,,0.00,Weather View 32 v70,2013-05-15 06:06:00,
2013-05-15 02:11:00,32.3,28.9,30.18,NW,326,0.0,1.0,87,0.00,,,0.00,Weather View 32 v70,2013-05-15 06:11:00,
2013-05-15 02:16:00,32.1,28.7,30.19,NW,324,0.0,1.0,87,0.00,,,0.00,Weather View 32 v70,2013-05-15 06:16:00,
2013-05-15 02:21:00,32.5,29.1,30.19,SW,236,0.0,1.0,87,0.00,,,0.00,Weather View 32 v70,2013-05-15 06:21:00,
2013-05-15 02:26:00,32.3,28.9,30.18,WNW,296,0.0,1.0,87,0.00,,,0.00,Weather View 32 v70,2013-05-15 06:26:00,
2013-05-15 02:31:00,32.0,28.6,30.19,SW,231,2.0,2.0,87,0.00,,,0.00,Weather View 32 v70,2013-05-15 06:31:00,
2013-05-15 02:36:00,32.0,28.6,30.18,NW,309,0.0,2.0,87,0.00,,,0.00,Weather View 32 v70,2013-05-15 06:36:00,
2013-05-15 02:41:00,32.1,28.9,30.18,WNW,294,1.0,2.0,88,0.00,,,0.00,Weather View 32 v70,2013-05-15 06:41:00,
2013-05-15 02:46:00,32.0,28.8,30.18,NW,307,0.0,2.0,88,0.00,,,0.00,Weather View 32 v70,2013-05-15 06:46:00,
2013-05-15 02:51:00,32.0,28.8,30.18,SSE,156,1.0,2.0,88,0.00,,,0.00,Weather View 32 v70,2013-05-15 06:51:00,
2013-05-15 02:56:00,31.7,28.6,30.18,NNW,336,2.0,2.0,88,0.00,,,0.00,Weather View 32 v70,2013-05-15 06:56:00,
2013-05-15 03:01:00,31.5,28.4,30.18,NNW,331,0.0,2.0,88,0.00,,,0.00,Weather View 32 v70,2013-05-15 07:01:00,
2013-05-15 03:06:00,31.5,28.4,30.17,East,87,0.0,2.0,88,0.00,,,0.00,Weather View 32 v70,2013-05-15 07:06:00,
2013-05-15 03:11:00,31.3,28.2,30.19,North,358,0.0,2.0,88,0.00,,,0.00,Weather View 32 v70,2013-05-15 07:11:00,
2013-05-15 03:16:00,31.5,28.4,30.18,West,274,0.0,2.0,88,0.00,,,0.00,Weather View 32 v70,2013-05-15 07:16:00,
2013-05-15 03:21:00,31.1,28.0,30.18,SW,223,0.0,2.0,88,0.00,,,0.00,Weather View 32 v70,2013-05-15 07:21:00,
2013-05-15 03:26:00,31.1,28.2,30.17,WNW,288,0.0,2.0,89,0.00,,,0.00,Weather View 32 v70,2013-05-15 07:26:00,
2013-05-15 03:31:00,31.3,28.4,30.18,NNE,29,1.0,2.0,89,0.00,,,0.00,Weather View 32 v70,2013-05-15 07:31:00,
2013-05-15 03:36:00,30.8,27.9,30.18,North,10,0.0,2.0,89,0.00,,,0.00,Weather View 32 v70,2013-05-15 07:36:00,
2013-05-15 03:41:00,30.6,27.7,30.17,West,278,0.0,2.0,89,0.00,,,0.00,Weather View 32 v70,2013-05-15 07:41:00,
2013-05-15 03:46:00,30.8,27.9,30.18,SSE,162,0.0,2.0,89,0.00,,,0.00,Weather View 32 v70,2013-05-15 07:46:00,
2013-05-15 03:51:00,30.8,27.9,30.18,SSW,201,1.0,2.0,89,0.00,,,0.00,Weather View 32 v70,2013-05-15 07:51:00,
2013-05-15 03:56:00,31.0,28.1,30.18,NW,316,0.0,2.0,89,0.00,,,0.00,Weather View 32 v70,2013-05-15 07:56:00,
2013-05-15 04:01:00,30.6,27.7,30.17,NNE,14,0.0,1.0,89,0.00,,,0.00,Weather View 32 v70,2013-05-15 08:01:00,
2013-05-15 04:06:00,30.4,27.5,30.17,WSW,254,0.0,1.0,89,0.00,,,0.00,Weather View 32 v70,2013-05-15 08:06:00,
2013-05-15 04:11:00,30.4,27.8,30.17,WSW,239,0.0,1.0,90,0.00,,,0.00,Weather View 32 v70,2013-05-15 08:11:00,
2013-05-15 04:16:00,30.1,27.5,30.17,NNW,344,0.0,1.0,90,0.00,,,0.00,Weather View 32 v70,2013-05-15 08:16:00,
2013-05-15 04:21:00,29.9,27.3,30.17,WNW,294,0.0,1.0,90,0.00,,,0.00,Weather View 32 v70,2013-05-15 08:21:00,
2013-05-15 04:26:00,29.7,27.1,30.17,WNW,290,0.0,1.0,90,0.00,,,0.00,Weather View 32 v70,2013-05-15 08:26:00,
2013-05-15 04:31:00,30.2,27.6,30.17,NW,312,0.0,1.0,90,0.00,,,0.00,Weather View 32 v70,2013-05-15 08:31:00,
2013-05-15 04:36:00,29.9,27.3,30.16,North,358,1.0,1.0,90,0.00,,,0.00,Weather View 32 v70,2013-05-15 08:36:00,
2013-05-15 04:41:00,29.7,27.1,30.17,South,174,0.0,1.0,90,0.00,,,0.00,Weather View 32 v70,2013-05-15 08:41:00,
2013-05-15 04:46:00,29.9,27.3,30.17,WSW,256,0.0,1.0,90,0.00,,,0.00,Weather View 32 v70,2013-05-15 08:46:00,
2013-05-15 04:51:00,29.9,27.3,30.16,SW,226,0.0,1.0,90,0.00,,,0.00,Weather View 32 v70,2013-05-15 08:51:00,
2013-05-15 04:56:00,29.7,27.1,30.16,West,270,0.0,1.0,90,0.00,,,0.00,Weather View 32 v70,2013-05-15 08:56:00,
2013-05-15 05:01:00,29.7,27.1,30.16,WSW,241,0.0,1.0,90,0.00,,,0.00,Weather View 32 v70,2013-05-15 09:01:00,
2013-05-15 05:06:00,29.9,27.3,30.16,West,269,0.0,1.0,90,0.00,,,0.00,Weather View 32 v70,2013-05-15 09:06:00,
2013-05-15 05:11:00,29.5,26.9,30.17,NNW,331,0.0,1.0,90,0.00,,,0.00,Weather View 32 v70,2013-05-15 09:11:00,
2013-05-15 05:16:00,29.7,27.1,30.17,West,264,1.0,1.0,90,0.00,,,0.00,Weather View 32 v70,2013-05-15 09:16:00,
2013-05-15 05:21:00,29.7,27.1,30.16,West,277,0.0,1.0,90,0.00,,,0.00,Weather View 32 v70,2013-05-15 09:21:00,
2013-05-15 05:26:00,29.7,27.1,30.16,NNE,17,0.0,1.0,90,0.00,,,0.00,Weather View 32 v70,2013-05-15 09:26:00,
2013-05-15 05:31:00,29.5,26.9,30.16,WNW,282,0.0,1.0,90,0.00,,,0.00,Weather View 32 v70,2013-05-15 09:31:00,
2013-05-15 05:36:00,29.5,26.9,30.17,West,265,0.0,1.0,90,0.00,,,0.00,Weather View 32 v70,2013-05-15 09:36:00,
2013-05-15 05:41:00,29.9,27.3,30.16,WNW,283,0.0,1.0,90,0.00,,,0.00,Weather View 32 v70,2013-05-15 09:41:00,
2013-05-15 05:46:00,30.1,27.5,30.16,SW,214,0.0,1.0,90,0.00,,,0.00,Weather View 32 v70,2013-05-15 09:46:00,
2013-05-15 05:51:00,30.2,27.6,30.16,WNW,294,0.0,1.0,90,0.00,,,0.00,Weather View 32 v70,2013-05-15 09:51:00,
2013-05-15 05:56:00,30.6,28.0,30.16,NNW,339,0.0,1.0,90,0.00,,,0.00,Weather View 32 v70,2013-05-15 09:56:00,
2013-05-15 06:01:00,31.3,28.7,30.16,North,360,0.0,1.0,90,0.00,,,0.00,Weather View 32 v70,2013-05-15 10:01:00,
2013-05-15 06:06:00,31.3,28.7,30.16,North,6,0.0,1.0,90,0.00,,,0.00,Weather View 32 v70,2013-05-15 10:06:00,
2013-05-15 06:11:00,31.9,29.3,30.16,NNW,331,0.0,1.0,90,0.00,,,0.00,Weather View 32 v70,2013-05-15 10:11:00,
2013-05-15 06:16:00,32.0,29.4,30.16,SSW,194,0.0,1.0,90,0.00,,,0.00,Weather View 32 v70,2013-05-15 10:16:00,
2013-05-15 06:21:00,32.7,30.1,30.16,WNW,296,0.0,1.0,90,0.00,,,0.00,Weather View 32 v70,2013-05-15 10:21:00,
2013-05-15 06:26:00,32.5,29.9,30.16,WSW,255,1.0,1.0,90,0.00,,,0.00,Weather View 32 v70,2013-05-15 10:26:00,
2013-05-15 06:31:00,33.0,30.4,30.15,WSW,244,1.0,2.0,90,0.00,,,0.00,Weather View 32 v70,2013-05-15 10:31:00,
2013-05-15 06:36:00,33.8,31.2,30.14,West,276,0.0,2.0,90,0.00,,,0.00,Weather View 32 v70,2013-05-15 10:36:00,
2013-05-15 06:41:00,33.4,30.8,30.15,West,261,1.0,2.0,90,0.00,,,0.00,Weather View 32 v70,2013-05-15 10:41:00,
2013-05-15 06:46:00,34.3,31.7,30.14,SSW,201,1.0,2.0,90,0.00,,,0.00,Weather View 32 v70,2013-05-15 10:46:00,
2013-05-15 06:51:00,34.1,31.5,30.14,SW,227,1.0,2.0,90,0.00,,,0.00,Weather View 32 v70,2013-05-15 10:51:00,
2013-05-15 06:56:00,34.8,32.2,30.14,SW,219,1.0,2.0,90,0.00,,,0.00,Weather View 32 v70,2013-05-15 10:56:00,
2013-05-15 07:01:00,35.7,33.1,30.13,NNW,330,0.0,2.0,90,0.00,,,0.00,Weather View 32 v70,2013-05-15 11:01:00,
2013-05-15 07:07:00,36.5,34.4,30.14,SSW,210,0.0,2.0,92,0.00,,,0.00,Weather View 32 v70,2013-05-15 11:07:00,
2013-05-15 07:12:00,36.6,34.5,30.13,SW,215,1.0,2.0,92,0.00,,,0.00,Weather View 32 v70,2013-05-15 11:12:00,
2013-05-15 07:17:00,36.6,34.5,30.12,SSW,196,0.0,2.0,92,0.00,,,0.00,Weather View 32 v70,2013-05-15 11:17:00,
2013-05-15 07:22:00,36.8,34.4,30.12,SSW,212,0.0,2.0,91,0.00,,,0.00,Weather View 32 v70,2013-05-15 11:22:00,
2013-05-15 07:27:00,37.4,35.0,30.12,SW,224,0.0,2.0,91,0.00,,,0.00,Weather View 32 v70,2013-05-15 11:27:00,
2013-05-15 07:32:00,37.7,35.0,30.12,NNE,19,1.0,2.0,90,0.00,,,0.00,Weather View 32 v70,2013-05-15 11:32:00,
2013-05-15 07:38:00,38.3,35.3,30.12,South,178,0.0,2.0,89,0.00,,,0.00,Weather View 32 v70,2013-05-15 11:38:00,
2013-05-15 07:43:00,39.2,36.2,30.12,SW,232,1.0,2.0,89,0.00,,,0.00,Weather View 32 v70,2013-05-15 11:43:00,
2013-05-15 07:48:00,40.8,37.2,30.12,SSE,151,4.0,5.0,87,0.00,,,0.00,Weather View 32 v70,2013-05-15 11:48:00,
2013-05-15 07:53:00,42.8,35.8,30.11,East,89,3.0,5.0,76,0.00,,,0.00,Weather View 32 v70,2013-05-15 11:53:00,
2013-05-15 07:58:00,44.2,35.4,30.11,SE,132,3.0,5.0,71,0.00,,,0.00,Weather View 32 v70,2013-05-15 11:58:00,
2013-05-15 08:03:00,45.1,35.5,30.10,ESE,115,4.0,5.0,69,0.00,,,0.00,Weather View 32 v70,2013-05-15 12:03:00,
2013-05-15 08:08:00,46.4,36.0,30.09,SE,140,2.0,5.0,67,0.00,,,0.00,Weather View 32 v70,2013-05-15 12:08:00,
2013-05-15 08:13:00,47.4,36.2,30.09,SE,145,1.0,5.0,65,0.00,,,0.00,Weather View 32 v70,2013-05-15 12:13:00,
2013-05-15 08:18:00,47.8,35.8,30.07,ESE,121,3.0,6.0,63,0.00,,,0.00,Weather View 32 v70,2013-05-15 12:18:00,
2013-05-15 08:23:00,48.2,36.2,30.06,SE,128,2.0,6.0,63,0.00,,,0.00,Weather View 32 v70,2013-05-15 12:23:00,
2013-05-15 08:28:00,49.2,37.5,30.06,SE,127,3.0,6.0,64,0.00,,,0.00,Weather View 32 v70,2013-05-15 12:28:00,
2013-05-15 08:33:00,49.4,36.5,30.05,ESE,110,3.0,6.0,61,0.00,,,0.00,Weather View 32 v70,2013-05-15 12:33:00,
2013-05-15 08:39:00,49.8,35.6,30.05,ESE,123,3.0,6.0,58,0.00,,,0.00,Weather View 32 v70,2013-05-15 12:39:00,
2013-05-15 08:44:00,50.3,35.6,30.04,ESE,119,2.0,6.0,57,0.00,,,0.00,Weather View 32 v70,2013-05-15 12:44:00,
2013-05-15 08:50:00,51.4,34.8,30.04,SSW,192,4.0,6.0,53,0.00,,,0.00,Weather View 32 v70,2013-05-15 12:50:00,
2013-05-15 08:55:00,51.8,35.2,30.04,SW,230,3.0,9.0,53,0.00,,,0.00,Weather View 32 v70,2013-05-15 12:55:00,
2013-05-15 09:00:00,52.5,34.9,30.02,SSE,151,4.0,9.0,51,0.00,,,0.00,Weather View 32 v70,2013-05-15 13:00:00,
2013-05-15 09:05:00,53.6,35.4,30.01,SE,142,3.0,9.0,50,0.00,,,0.00,Weather View 32 v70,2013-05-15 13:05:00,
2013-05-15 09:10:00,53.6,35.9,30.02,SE,134,3.0,9.0,51,0.00,,,0.00,Weather View 32 v70,2013-05-15 13:10:00,
2013-05-15 09:15:00,53.4,34.2,30.01,SE,131,4.0,9.0,48,0.00,,,0.00,Weather View 32 v70,2013-05-15 13:15:00,
2013-05-15 09:21:00,53.6,33.8,30.01,ESE,115,6.0,9.0,47,0.00,,,0.00,Weather View 32 v70,2013-05-15 13:21:00,
2013-05-15 09:26:00,53.7,34.4,30.00,SSW,192,2.0,9.0,48,0.00,,,0.00,Weather View 32 v70,2013-05-15 13:26:00,
2013-05-15 09:31:00,53.9,33.0,30.00,SSE,148,3.0,9.0,45,0.00,,,0.00,Weather View 32 v70,2013-05-15 13:31:00,
2013-05-15 09:36:00,54.3,33.4,30.00,SE,138,2.0,9.0,45,0.00,,,0.00,Weather View 32 v70,2013-05-15 13:36:00,
2013-05-15 09:41:00,54.6,34.2,29.99,ESE,122,2.0,9.0,46,0.00,,,0.00,Weather View 32 v70,2013-05-15 13:41:00,
2013-05-15 09:47:00,53.9,32.4,29.99,SSE,167,2.0,9.0,44,0.00,,,0.00,Weather View 32 v70,2013-05-15 13:47:00,
2013-05-15 09:52:00,53.7,34.4,29.99,ESE,102,4.0,8.0,48,0.00,,,0.00,Weather View 32 v70,2013-05-15 13:52:00,
2013-05-15 09:58:00,53.9,34.1,29.99,SE,135,4.0,8.0,47,0.00,,,0.00,Weather View 32 v70,2013-05-15 13:58:00,
2013-05-15 10:03:00,54.1,35.3,29.98,East,90,3.0,8.0,49,0.00,,,0.00,Weather View 32 v70,2013-05-15 14:03:00,
2013-05-15 10:08:00,53.9,35.1,29.99,SSE,153,3.0,8.0,49,0.00,,,0.00,Weather View 32 v70,2013-05-15 14:08:00,
2013-05-15 10:13:00,53.9,35.1,29.99,ESE,113,3.0,8.0,49,0.00,,,0.00,Weather View 32 v70,2013-05-15 14:13:00,
2013-05-15 10:19:00,53.9,35.7,29.98,SSE,159,2.0,8.0,50,0.00,,,0.00,Weather View 32 v70,2013-05-15 14:19:00,
2013-05-15 10:24:00,53.9,35.7,29.98,ESE,111,4.0,7.0,50,0.00,,,0.00,Weather View 32 v70,2013-05-15 14:24:00,
2013-05-15 10:29:00,53.9,36.2,29.99,SSE,155,2.0,7.0,51,0.00,,,0.00,Weather View 32 v70,2013-05-15 14:29:00,
2013-05-15 10:33:00,53.9,35.7,29.98,ESE,118,7.0,7.0,50,0.00,,,0.00,Weather View 32 v70,2013-05-15 14:33:00,
2013-05-15 10:39:00,53.9,35.7,29.98,SE,131,3.0,7.0,50,0.00,,,0.00,Weather View 32 v70,2013-05-15 14:39:00,
2013-05-15 10:44:00,53.9,36.2,29.99,SE,127,3.0,7.0,51,0.00,,,0.00,Weather View 32 v70,2013-05-15 14:44:00,
2013-05-15 10:49:00,54.1,36.3,29.98,SE,132,3.0,7.0,51,0.00,,,0.00,Weather View 32 v70,2013-05-15 14:49:00,
2013-05-15 10:55:00,54.3,37.0,29.99,SE,132,3.0,7.0,52,0.00,,,0.00,Weather View 32 v70,2013-05-15 14:55:00,
2013-05-15 11:00:00,54.6,37.8,29.98,SE,135,1.0,7.0,53,0.00,,,0.00,Weather View 32 v70,2013-05-15 15:00:00,
2013-05-15 11:06:00,54.8,38.0,29.98,SE,137,3.0,7.0,53,0.00,,,0.00,Weather View 32 v70,2013-05-15 15:06:00,
2013-05-15 11:11:00,55.0,37.7,29.98,SSE,151,2.0,7.0,52,0.00,,,0.00,Weather View 32 v70,2013-05-15 15:11:00,
2013-05-15 11:16:00,55.7,39.7,29.98,SE,126,3.0,7.0,55,0.00,,,0.00,Weather View 32 v70,2013-05-15 15:16:00,
2013-05-15 11:21:00,56.1,37.2,29.97,SSW,196,4.0,10.0,49,0.00,,,0.00,Weather View 32 v70,2013-05-15 15:21:00,
2013-05-15 11:26:00,55.9,37.5,29.97,SSE,159,3.0,12.0,50,0.00,,,0.00,Weather View 32 v70,2013-05-15 15:26:00,
2013-05-15 11:31:00,55.9,38.0,29.97,SE,141,4.0,12.0,51,0.00,,,0.00,Weather View 32 v70,2013-05-15 15:31:00,
2013-05-15 11:36:00,55.7,37.8,29.97,SSE,160,2.0,13.0,51,0.00,,,0.00,Weather View 32 v70,2013-05-15 15:36:00,
2013-05-15 11:41:00,55.5,38.1,29.97,SSE,151,4.0,13.0,52,0.00,,,0.00,Weather View 32 v70,2013-05-15 15:41:00,
2013-05-15 11:46:00,55.5,38.6,29.96,SSE,165,4.0,13.0,53,0.00,,,0.00,Weather View 32 v70,2013-05-15 15:46:00,
2013-05-15 11:52:00,55.2,40.2,29.96,SSW,196,2.0,13.0,57,0.00,,,0.00,Weather View 32 v70,2013-05-15 15:52:00,
2013-05-15 11:57:00,54.6,40.5,29.96,SSE,159,3.0,13.0,59,0.00,,,0.00,Weather View 32 v70,2013-05-15 15:57:00,
2013-05-15 12:02:00,54.3,39.4,29.95,SSE,152,3.0,13.0,57,0.00,,,0.00,Weather View 32 v70,2013-05-15 16:02:00,
2013-05-15 12:08:00,54.1,39.2,29.93,SSE,154,3.0,13.0,57,0.00,,,0.00,Weather View 32 v70,2013-05-15 16:08:00,
2013-05-15 12:13:00,54.3,38.9,29.91,ESE,122,5.0,13.0,56,0.00,,,0.00,Weather View 32 v70,2013-05-15 16:13:00,
2013-05-15 12:18:00,54.5,40.0,29.91,SSE,150,5.0,13.0,58,0.00,,,0.00,Weather View 32 v70,2013-05-15 16:18:00,
2013-05-15 12:23:00,54.5,39.1,29.90,ESE,116,2.0,13.0,56,0.00,,,0.00,Weather View 32 v70,2013-05-15 16:23:00,
2013-05-15 12:28:00,54.8,40.3,29.89,ESE,103,11.0,15.0,58,0.00,,,0.00,Weather View 32 v70,2013-05-15 16:28:00,
2013-05-15 12:33:00,54.8,41.2,29.89,SE,146,3.0,15.0,60,0.00,,,0.00,Weather View 32 v70,2013-05-15 16:33:00,
2013-05-15 12:38:00,54.3,39.8,29.89,SE,126,4.0,18.0,58,0.00,,,0.00,Weather View 32 v70,2013-05-15 16:38:00,
2013-05-15 12:43:00,54.3,40.2,29.89,South,186,4.0,18.0,59,0.00,,,0.00,Weather View 32 v70,2013-05-15 16:43:00,
2013-05-15 12:48:00,54.1,40.5,29.89,ESE,107,7.0,18.0,60,0.00,,,0.00,Weather View 32 v70,2013-05-15 16:48:00,
2013-05-15 12:53:00,53.9,40.7,29.89,South,170,6.0,18.0,61,0.00,,,0.00,Weather View 32 v70,2013-05-15 16:53:00,
2013-05-15 12:59:00,53.9,40.7,29.89,SE,140,7.0,18.0,61,0.00,,,0.00,Weather View 32 v70,2013-05-15 16:59:00,
2013-05-15 13:04:00,53.7,41.0,29.88,SE,137,6.0,18.0,62,0.00,,,0.00,Weather View 32 v70,2013-05-15 17:04:00,
2013-05-15 13:10:00,53.7,41.8,29.88,East,90,7.0,18.0,64,0.00,,,0.00,Weather View 32 v70,2013-05-15 17:10:00,
2013-05-15 13:15:00,53.4,42.7,29.90,North,352,1.0,18.0,67,0.00,,,0.00,Weather View 32 v70,2013-05-15 17:15:00,
2013-05-15 13:20:00,52.5,43.4,29.92,SE,137,2.0,18.0,71,0.00,,,0.00,Weather View 32 v70,2013-05-15 17:20:00,
2013-05-15 13:25:00,51.8,44.1,29.90,ESE,117,6.0,18.0,75,0.00,,,0.00,Weather View 32 v70,2013-05-15 17:25:00,
2013-05-15 13:30:00,50.7,44.7,29.89,SE,129,7.0,18.0,80,0.06,,,0.06,Weather View 32 v70,2013-05-15 17:30:00,
2013-05-15 13:35:00,51.0,46.0,29.90,ESE,107,1.0,18.0,83,0.07,,,0.07,Weather View 32 v70,2013-05-15 17:35:00,
2013-05-15 13:40:00,51.4,46.4,29.89,SSE,155,2.0,17.0,83,0.07,,,0.07,Weather View 32 v70,2013-05-15 17:40:00,
2013-05-15 13:45:00,51.2,46.2,29.89,SE,144,4.0,17.0,83,0.07,,,0.07,Weather View 32 v70,2013-05-15 17:45:00,
2013-05-15 13:50:00,51.4,46.7,29.88,SE,140,4.0,17.0,84,0.07,,,0.07,Weather View 32 v70,2013-05-15 17:50:00,
2013-05-15 13:55:00,51.6,46.9,29.88,ESE,117,7.0,17.0,84,0.07,,,0.07,Weather View 32 v70,2013-05-15 17:55:00,
2013-05-15 14:00:00,51.9,47.2,29.88,ESE,119,3.0,17.0,84,0.07,,,0.07,Weather View 32 v70,2013-05-15 18:00:00,
2013-05-15 14:05:00,51.9,46.9,29.90,ENE,74,1.0,15.0,83,0.07,,,0.07,Weather View 32 v70,2013-05-15 18:05:00,
2013-05-15 14:10:00,51.9,46.9,29.90,SE,146,5.0,15.0,83,0.07,,,0.07,Weather View 32 v70,2013-05-15 18:10:00,
2013-05-15 14:16:00,51.6,46.9,29.88,SE,131,4.0,15.0,84,0.08,,,0.08,Weather View 32 v70,2013-05-15 18:16:00,
2013-05-15 14:21:00,51.6,46.9,29.89,WSW,252,0.0,12.0,84,0.08,,,0.08,Weather View 32 v70,2013-05-15 18:21:00,
2013-05-15 14:26:00,51.6,46.9,29.87,SSE,149,4.0,12.0,84,0.08,,,0.08,Weather View 32 v70,2013-05-15 18:26:00,
2013-05-15 14:31:00,51.6,46.9,29.85,ESE,116,3.0,12.0,84,0.02,,,0.08,Weather View 32 v70,2013-05-15 18:31:00,
2013-05-15 14:37:00,51.4,46.7,29.84,SSW,210,3.0,12.0,84,0.01,,,0.08,Weather View 32 v70,2013-05-15 18:37:00,
2013-05-15 14:42:00,51.8,47.1,29.88,East,81,3.0,12.0,84,0.01,,,0.08,Weather View 32 v70,2013-05-15 18:42:00,
2013-05-15 14:47:00,51.8,47.1,29.88,East,83,2.0,12.0,84,0.01,,,0.08,Weather View 32 v70,2013-05-15 18:47:00,
2013-05-15 14:52:00,52.3,47.6,29.83,South,171,4.0,12.0,84,0.01,,,0.08,Weather View 32 v70,2013-05-15 18:52:00,
2013-05-15 14:57:00,52.1,47.4,29.81,SE,146,3.0,11.0,84,0.01,,,0.08,Weather View 32 v70,2013-05-15 18:57:00,
2013-05-15 15:02:00,52.8,48.1,29.81,South,172,3.0,11.0,84,0.01,,,0.08,Weather View 32 v70,2013-05-15 19:02:00,
2013-05-15 15:07:00,53.4,48.7,29.80,SSW,199,6.0,11.0,84,0.01,,,0.08,Weather View 32 v70,2013-05-15 19:07:00,
2013-05-15 15:13:00,53.6,48.9,29.80,East,98,5.0,11.0,84,0.01,,,0.08,Weather View 32 v70,2013-05-15 19:13:00,
2013-05-15 15:18:00,53.9,48.8,29.79,West,268,2.0,15.0,83,0.00,,,0.08,Weather View 32 v70,2013-05-15 19:18:00,
2013-05-15 15:23:00,55.2,50.8,29.79,SE,139,11.0,15.0,85,0.00,,,0.08,Weather View 32 v70,2013-05-15 19:23:00,
2013-05-15 15:29:00,56.6,49.8,29.77,SE,144,4.0,15.0,78,0.00,,,0.08,Weather View 32 v70,2013-05-15 19:29:00,
2013-05-15 15:34:00,57.7,50.2,29.75,SE,132,12.0,15.0,76,0.00,,,0.08,Weather View 32 v70,2013-05-15 19:34:00,
2013-05-15 15:40:00,58.4,49.4,29.74,SSE,158,7.0,18.0,72,0.00,,,0.08,Weather View 32 v70,2013-05-15 19:40:00,
2013-05-15 15:45:00,59.5,50.4,29.72,SSW,203,4.0,18.0,72,0.00,,,0.08,Weather View 32 v70,2013-05-15 19:45:00,
2013-05-15 15:51:00,60.0,49.0,29.71,SSE,147,6.0,21.0,67,0.00,,,0.08,Weather View 32 v70,2013-05-15 19:51:00,
2013-05-15 15:56:00,60.6,49.6,29.70,South,178,3.0,21.0,67,0.00,,,0.08,Weather View 32 v70,2013-05-15 19:56:00,
2013-05-15 16:00:00,60.8,48.5,29.70,South,190,5.0,21.0,64,0.00,,,0.08,Weather View 32 v70,2013-05-15 20:00:00,
2013-05-15 16:07:00,61.1,48.8,29.71,SE,134,7.0,21.0,64,0.00,,,0.08,Weather View 32 v70,2013-05-15 20:07:00,
2013-05-15 16:12:00,61.5,48.8,29.72,SE,131,4.0,21.0,63,0.00,,,0.08,Weather View 32 v70,2013-05-15 20:12:00,
2013-05-15 16:17:00,62.2,49.0,29.72,SE,134,6.0,21.0,62,0.00,,,0.08,Weather View 32 v70,2013-05-15 20:17:00,
2013-05-15 16:22:00,62.7,49.5,29.72,South,174,2.0,21.0,62,0.00,,,0.08,Weather View 32 v70,2013-05-15 20:22:00,
2013-05-15 16:27:00,63.6,49.4,29.72,SE,125,14.0,21.0,60,0.00,,,0.08,Weather View 32 v70,2013-05-15 20:27:00,
2013-05-15 16:32:00,64.5,49.8,29.73,SW,214,3.0,21.0,59,0.00,,,0.08,Weather View 32 v70,2013-05-15 20:32:00,
2013-05-15 16:38:00,64.4,49.3,29.73,SSE,168,3.0,21.0,58,0.00,,,0.08,Weather View 32 v70,2013-05-15 20:38:00,
2013-05-15 16:43:00,64.9,49.3,29.73,SE,143,3.0,21.0,57,0.00,,,0.08,Weather View 32 v70,2013-05-15 20:43:00,
2013-05-15 16:48:00,65.1,49.4,29.72,SSW,195,3.0,21.0,57,0.00,,,0.08,Weather View 32 v70,2013-05-15 20:48:00,
2013-05-15 16:53:00,65.3,50.6,29.72,SW,217,1.0,21.0,59,0.00,,,0.08,Weather View 32 v70,2013-05-15 20:53:00,
2013-05-15 16:58:00,65.3,49.2,29.71,South,172,4.0,18.0,56,0.00,,,0.08,Weather View 32 v70,2013-05-15 20:58:00,
2013-05-15 17:04:00,65.3,49.6,29.70,SSE,150,4.0,18.0,57,0.00,,,0.08,Weather View 32 v70,2013-05-15 21:04:00,
2013-05-15 17:09:00,65.3,49.2,29.70,ESE,117,4.0,18.0,56,0.00,,,0.08,Weather View 32 v70,2013-05-15 21:09:00,
2013-05-15 17:14:00,65.4,49.3,29.69,SSW,199,3.0,18.0,56,0.00,,,0.08,Weather View 32 v70,2013-05-15 21:14:00,
2013-05-15 17:19:00,65.6,48.5,29.69,SSW,193,4.0,17.0,54,0.00,,,0.08,Weather View 32 v70,2013-05-15 21:19:00,
2013-05-15 17:24:00,65.8,48.6,29.69,WSW,238,4.0,17.0,54,0.00,,,0.08,Weather View 32 v70,2013-05-15 21:24:00,
2013-05-15 17:30:00,65.6,48.5,29.68,SE,132,5.0,13.0,54,0.00,,,0.08,Weather View 32 v70,2013-05-15 21:30:00,
2013-05-15 17:35:00,65.6,48.0,29.68,SE,127,11.0,13.0,53,0.00,,,0.08,Weather View 32 v70,2013-05-15 21:35:00,
2013-05-15 17:40:00,65.6,48.0,29.68,SSE,150,3.0,13.0,53,0.00,,,0.08,Weather View 32 v70,2013-05-15 21:40:00,
2013-05-15 17:45:00,65.6,48.5,29.68,East,90,2.0,13.0,54,0.00,,,0.08,Weather View 32 v70,2013-05-15 21:45:00,
2013-05-15 17:50:00,65.8,48.6,29.67,SSE,150,5.0,16.0,54,0.00,,,0.08,Weather View 32 v70,2013-05-15 21:50:00,
2013-05-15 17:55:00,65.6,48.5,29.67,SSW,194,4.0,16.0,54,0.00,,,0.08,Weather View 32 v70,2013-05-15 21:55:00,
2013-05-15 18:00:00,65.6,48.5,29.68,SSE,154,6.0,16.0,54,0.00,,,0.08,Weather View 32 v70,2013-05-15 22:00:00,
2013-05-15 18:05:00,65.8,49.1,29.68,SSW,213,4.0,16.0,55,0.00,,,0.08,Weather View 32 v70,2013-05-15 22:05:00,
2013-05-15 18:10:00,65.4,48.3,29.68,SSW,196,5.0,16.0,54,0.00,,,0.08,Weather View 32 v70,2013-05-15 22:10:00,
2013-05-15 18:15:00,65.4,48.8,29.69,South,183,2.0,16.0,55,0.00,,,0.08,Weather View 32 v70,2013-05-15 22:15:00,
2013-05-15 18:20:00,65.4,48.8,29.69,SE,132,3.0,16.0,55,0.00,,,0.08,Weather View 32 v70,2013-05-15 22:20:00,
2013-05-15 18:26:00,65.4,48.8,29.68,SSE,152,6.0,16.0,55,0.00,,,0.08,Weather View 32 v70,2013-05-15 22:26:00,
2013-05-15 18:31:00,65.4,49.3,29.68,ESE,121,3.0,16.0,56,0.00,,,0.08,Weather View 32 v70,2013-05-15 22:31:00,
2013-05-15 18:36:00,65.3,49.6,29.67,South,187,2.0,16.0,57,0.00,,,0.08,Weather View 32 v70,2013-05-15 22:36:00,
2013-05-15 18:41:00,65.3,50.1,29.68,SE,143,5.0,16.0,58,0.00,,,0.08,Weather View 32 v70,2013-05-15 22:41:00,
2013-05-15 18:46:00,65.1,49.4,29.68,SSE,167,3.0,16.0,57,0.00,,,0.08,Weather View 32 v70,2013-05-15 22:46:00,
2013-05-15 18:51:00,64.9,49.7,29.68,SE,133,2.0,16.0,58,0.00,,,0.08,Weather View 32 v70,2013-05-15 22:51:00,
2013-05-15 18:56:00,64.9,49.7,29.68,SSE,147,3.0,16.0,58,0.00,,,0.08,Weather View 32 v70,2013-05-15 22:56:00,
2013-05-15 19:01:00,64.5,49.8,29.68,SSE,155,8.0,11.0,59,0.00,,,0.08,Weather View 32 v70,2013-05-15 23:01:00,
2013-05-15 19:07:00,64.7,50.0,29.68,SSE,159,3.0,12.0,59,0.00,,,0.08,Weather View 32 v70,2013-05-15 23:07:00,
2013-05-15 19:12:00,64.4,49.7,29.68,South,185,3.0,12.0,59,0.00,,,0.08,Weather View 32 v70,2013-05-15 23:12:00,
2013-05-15 19:17:00,64.4,50.2,29.67,SSE,151,3.0,12.0,60,0.00,,,0.08,Weather View 32 v70,2013-05-15 23:17:00,
2013-05-15 19:22:00,64.4,50.2,29.67,SSE,153,2.0,12.0,60,0.00,,,0.08,Weather View 32 v70,2013-05-15 23:22:00,
2013-05-15 19:27:00,64.4,50.2,29.68,SE,141,2.0,12.0,60,0.00,,,0.08,Weather View 32 v70,2013-05-15 23:27:00,
2013-05-15 19:32:00,63.8,50.1,29.68,SE,139,3.0,12.0,61,0.00,,,0.08,Weather View 32 v70,2013-05-15 23:32:00,
2013-05-15 19:38:00,63.8,50.5,29.68,SE,146,2.0,12.0,62,0.00,,,0.08,Weather View 32 v70,2013-05-15 23:38:00,
2013-05-15 19:43:00,63.6,50.3,29.68,South,172,2.0,12.0,62,0.00,,,0.08,Weather View 32 v70,2013-05-15 23:43:00,
2013-05-15 19:48:00,63.6,50.7,29.67,SE,136,3.0,12.0,63,0.00,,,0.08,Weather View 32 v70,2013-05-15 23:48:00,
2013-05-15 19:54:00,63.1,50.3,29.67,SE,129,3.0,12.0,63,0.00,,,0.08,Weather View 32 v70,2013-05-15 23:54:00,
2013-05-15 19:59:00,63.1,50.3,29.68,SE,137,1.0,12.0,63,0.00,,,0.08,Weather View 32 v70,2013-05-15 23:59:00,
2013-05-15 20:04:00,62.9,50.5,29.68,SSE,165,1.0,8.0,64,0.00,,,0.08,Weather View 32 v70,2013-05-16 00:04:00,
2013-05-15 20:09:00,62.7,50.7,29.69,SE,129,1.0,8.0,65,0.00,,,0.08,Weather View 32 v70,2013-05-16 00:09:00,
2013-05-15 20:14:00,62.6,51.5,29.70,South,189,2.0,7.0,67,0.00,,,0.08,Weather View 32 v70,2013-05-16 00:14:00,
2013-05-15 20:20:00,62.2,51.1,29.70,West,263,1.0,6.0,67,0.00,,,0.08,Weather View 32 v70,2013-05-16 00:20:00,
2013-05-15 20:25:00,62.4,51.3,29.70,NNE,16,3.0,6.0,67,0.00,,,0.08,Weather View 32 v70,2013-05-16 00:25:00,
2013-05-15 20:30:00,62.0,50.9,29.70,South,172,3.0,6.0,67,0.00,,,0.08,Weather View 32 v70,2013-05-16 00:30:00,
2013-05-15 20:35:00,62.6,51.5,29.71,SSE,156,2.0,6.0,67,0.00,,,0.08,Weather View 32 v70,2013-05-16 00:35:00,
2013-05-15 20:40:00,62.6,51.5,29.70,SE,137,3.0,6.0,67,0.00,,,0.08,Weather View 32 v70,2013-05-16 00:40:00,
2013-05-15 20:45:00,62.7,51.6,29.70,SSW,199,2.0,6.0,67,0.00,,,0.08,Weather View 32 v70,2013-05-16 00:45:00,
2013-05-15 20:51:00,62.7,51.1,29.72,WSW,239,1.0,6.0,66,0.00,,,0.08,Weather View 32 v70,2013-05-16 00:51:00,
2013-05-15 20:56:00,62.6,51.5,29.72,SSE,167,1.0,6.0,67,0.00,,,0.08,Weather View 32 v70,2013-05-16 00:56:00,
2013-05-15 21:01:00,62.4,51.3,29.72,NW,305,2.0,6.0,67,0.00,,,0.08,Weather View 32 v70,2013-05-16 01:01:00,
2013-05-15 21:06:00,60.9,51.0,29.73,SSE,147,2.0,6.0,70,0.00,,,0.08,Weather View 32 v70,2013-05-16 01:06:00,
2013-05-15 21:12:00,59.7,50.6,29.74,NW,310,1.0,6.0,72,0.00,,,0.08,Weather View 32 v70,2013-05-16 01:12:00,
2013-05-15 21:17:00,59.0,50.7,29.74,SW,228,1.0,4.0,74,0.00,,,0.08,Weather View 32 v70,2013-05-16 01:17:00,
2013-05-15 21:22:00,57.9,50.4,29.75,NW,312,1.0,4.0,76,0.00,,,0.08,Weather View 32 v70,2013-05-16 01:22:00,
2013-05-15 21:28:00,57.0,50.5,29.75,NNW,328,0.0,4.0,79,0.00,,,0.08,Weather View 32 v70,2013-05-16 01:28:00,
2013-05-15 21:33:00,56.3,50.2,29.76,SSW,203,1.0,4.0,80,0.00,,,0.08,Weather View 32 v70,2013-05-16 01:33:00,
2013-05-15 21:38:00,55.4,50.0,29.76,NW,313,1.0,4.0,82,0.00,,,0.08,Weather View 32 v70,2013-05-16 01:38:00,
2013-05-15 21:44:00,54.8,50.0,29.77,SSE,165,1.0,4.0,84,0.00,,,0.08,Weather View 32 v70,2013-05-16 01:44:00,
2013-05-15 21:49:00,54.5,49.8,29.78,SW,225,0.0,4.0,84,0.00,,,0.08,Weather View 32 v70,2013-05-16 01:49:00,
2013-05-15 21:54:00,54.3,49.2,29.78,WNW,299,0.0,3.0,83,0.00,,,0.08,Weather View 32 v70,2013-05-16 01:54:00,
2013-05-15 21:59:00,53.7,48.6,29.78,NNW,342,0.0,3.0,83,0.00,,,0.08,Weather View 32 v70,2013-05-16 01:59:00,
2013-05-15 22:04:00,53.6,48.9,29.79,SW,226,0.0,3.0,84,0.00,,,0.08,Weather View 32 v70,2013-05-16 02:04:00,
2013-05-15 22:09:00,53.4,48.7,29.79,ENE,70,1.0,3.0,84,0.00,,,0.08,Weather View 32 v70,2013-05-16 02:09:00,
2013-05-15 22:15:00,52.3,47.6,29.79,SW,231,0.0,2.0,84,0.00,,,0.08,Weather View 32 v70,2013-05-16 02:15:00,
2013-05-15 22:20:00,51.9,47.2,29.79,WNW,301,1.0,2.0,84,0.00,,,0.08,Weather View 32 v70,2013-05-16 02:20:00,
2013-05-15 22:25:00,51.8,47.4,29.80,East,83,0.0,2.0,85,0.00,,,0.08,Weather View 32 v70,2013-05-16 02:25:00,
2013-05-15 22:30:00,51.4,47.3,29.80,NNE,25,0.0,2.0,86,0.00,,,0.08,Weather View 32 v70,2013-05-16 02:30:00,
2013-05-15 22:35:00,51.0,47.0,29.80,NNW,335,0.0,2.0,86,0.00,,,0.08,Weather View 32 v70,2013-05-16 02:35:00,
2013-05-15 22:40:00,50.9,46.9,29.80,North,350,1.0,2.0,86,0.00,,,0.08,Weather View 32 v70,2013-05-16 02:40:00,
2013-05-15 22:46:00,50.5,46.5,29.80,NW,308,0.0,2.0,86,0.00,,,0.08,Weather View 32 v70,2013-05-16 02:46:00,
2013-05-15 22:51:00,50.3,46.6,29.80,WNW,283,1.0,2.0,87,0.00,,,0.08,Weather View 32 v70,2013-05-16 02:51:00,
2013-05-15 22:56:00,50.0,46.3,29.80,South,169,0.0,2.0,87,0.00,,,0.08,Weather View 32 v70,2013-05-16 02:56:00,
2013-05-15 23:01:00,50.0,46.3,29.80,ENE,58,0.0,2.0,87,0.00,,,0.08,Weather View 32 v70,2013-05-16 03:01:00,
2013-05-15 23:06:00,49.6,46.2,29.80,SSW,193,0.0,2.0,88,0.00,,,0.08,Weather View 32 v70,2013-05-16 03:06:00,
2013-05-15 23:11:00,49.1,45.7,29.80,WNW,293,0.0,1.0,88,0.00,,,0.08,Weather View 32 v70,2013-05-16 03:11:00,
2013-05-15 23:17:00,49.2,45.8,29.80,WSW,238,2.0,2.0,88,0.00,,,0.08,Weather View 32 v70,2013-05-16 03:17:00,
2013-05-15 23:22:00,49.1,46.0,29.81,NNE,14,0.0,2.0,89,0.00,,,0.08,Weather View 32 v70,2013-05-16 03:22:00,
2013-05-15 23:27:00,48.9,45.8,29.81,SSE,154,2.0,2.0,89,0.00,,,0.08,Weather View 32 v70,2013-05-16 03:27:00,
2013-05-15 23:32:00,49.1,46.3,29.81,NE,55,1.0,2.0,90,0.00,,,0.08,Weather View 32 v70,2013-05-16 03:32:00,
2013-05-15 23:37:00,48.3,45.5,29.81,SW,217,2.0,2.0,90,0.00,,,0.08,Weather View 32 v70,2013-05-16 03:37:00,
2013-05-15 23:42:00,48.2,45.4,29.81,East,91,0.0,2.0,90,0.00,,,0.08,Weather View 32 v70,2013-05-16 03:42:00,
2013-05-15 23:47:00,48.3,45.5,29.81,West,262,1.0,2.0,90,0.00,,,0.08,Weather View 32 v70,2013-05-16 03:47:00,
2013-05-15 23:52:00,47.6,44.8,29.82,North,355,1.0,3.0,90,0.00,,,0.08,Weather View 32 v70,2013-05-16 03:52:00,
2013-05-15 23:57:00,47.6,44.8,29.83,West,276,1.0,5.0,90,0.00,,,0.08,Weather View 32 v70,2013-05-16 03:57:00,